Wind_Speed
26 25 24 24 23 22 23 23 22 23 23 23 23 23 22 22 22 23 23 24 24 24 24 24 23 22 23 24 24 24 25 25 25 24 25 25 25 26 27 27 26 26 27
25 24 23 22 22 22 23 22 23 23 23 23 23 23 22 22 23 24 24 25 25 24 24 22 22 22 23 23 23 24 25 25 25 25 25 26 26 27 27 28 28 27 26
24 23 22 21 22 22 23 22 22 22 22 22 23 23 23 23 24 24 24 25 24 23 22 22 21 22 22 22 23 23 24 24 25 26 26 26 26 27 28 27 27 27 26
22 22 21 21 22 23 22 22 22 22 23 23 23 23 23 24 24 24 24 24 23 22 22 22 22 21 21 22 22 22 23 23 24 25 26 26 26 26 26 26 26 26 26
22 21 21 22 22 22 22 22 22 22 22 22 23 23 23 24 24 24 24 23 22 23 23 22 21 21 22 22 22 22 22 22 22 23 24 25 25 25 25 24 25 25 25
22 22 22 22 21 21 21 21 22 22 22 23 23 24 23 23 23 23 23 22 22 23 23 22 21 21 22 22 21 21 20 21 21 22 22 23 23 23 24 24 24 24 23
22 22 22 21 21 22 22 22 22 22 22 23 23 23 22 21 22 22 22 22 22 22 23 22 22 21 20 20 20 20 20 21 21 21 21 21 22 22 22 23 23 22 22
21 21 21 21 22 22 22 22 22 22 22 22 22 21 21 21 21 21 21 21 22 22 22 21 20 19 19 19 19 19 19 20 21 21 20 21 21 21 22 22 22 22 21
21 21 21 22 22 22 22 22 22 21 21 21 21 20 20 20 21 21 21 22 22 21 21 21 20 19 19 19 18 18 18 19 19 19 19 20 21 21 22 22 21 21 21
21 21 21 21 22 21 21 20 20 20 20 21 20 20 20 20 20 21 21 21 21 20 20 19 19 18 17 17 17 17 17 18 18 18 18 19 19 20 21 21 21 21 22
20 20 20 20 20 20 20 19 19 19 19 20 19 19 19 20 21 21 20 19 19 18 18 17 17 17 17 17 17 17 17 17 18 18 18 19 19 20 21 21 21 22 22
19 19 19 19 18 18 19 19 18 18 18 19 19 19 20 20 19 19 18 17 16 16 16 16 17 17 17 17 17 16 16 16 17 17 18 18 19 20 20 21 22 22 21
19 19 18 19 18 18 18 18 17 17 18 19 19 18 18 18 17 17 16 15 14 15 16 16 16 16 16 16 16 16 16 17 17 17 17 18 19 19 19 20 20 20 20
18 18 18 18 17 17 17 16 17 17 17 18 18 18 18 17 16 16 15 15 14 14 15 15 16 15 14 15 15 16 16 17 18 18 18 18 18 18 18 19 19 19 19
18 17 17 18 17 16 16 16 16 16 16 17 17 18 18 18 17 16 16 16 15 15 14 14 14 14 14 14 15 16 16 17 17 17 18 18 17 17 17 18 18 19 19
17 17 17 17 15 15 15 15 15 15 15 16 17 18 18 18 18 17 17 16 15 15 14 14 15 15 15 15 16 16 16 17 17 18 17 17 16 16 17 17 18 19 19
17 16 15 15 14 14 14 14 14 14 14 15 16 17 18 19 18 18 16 16 15 15 15 15 15 16 16 16 16 17 17 17 17 17 18 17 16 16 17 17 18 18 19
15 14 14 13 13 13 12 12 12 13 13 15 17 18 19 19 19 18 17 16 15 15 16 16 16 16 17 17 17 17 17 17 17 17 18 17 17 18 18 18 18 18 18
14 13 13 12 12 12 12 11 11 12 13 15 17 18 19 19 18 18 17 17 16 16 16 17 17 17 18 18 18 18 17 17 17 18 18 17 18 18 19 19 18 18 18
13 12 12 11 11 11 11 10 11 12 14 15 17 17 18 18 18 17 17 17 17 17 17 17 18 18 19 19 19 19 18 18 18 19 19 19 20 19 19 19 18 18 18
13 12 11 11 11 10 11 11 12 13 14 15 16 17 17 17 17 17 17 17 17 17 18 18 18 19 19 20 21 21 20 19 19 20 20 20 20 19 18 18 18 17 17
12 12 11 11 10 10 10 11 12 12 14 15 15 16 16 17 17 17 17 17 17 17 18 18 18 19 20 21 22 21 21 20 20 20 20 20 19 18 18 18 17 17 17
11 11 11 10 10 10 10 11 12 13 14 14 14 14 15 16 16 17 17 17 17 18 18 19 19 20 20 21 22 22 21 21 21 21 21 20 19 19 19 19 18 18 17
11 10 10 10 10 11 11 11 12 13 13 13 13 14 15 16 17 17 17 18 19 19 18 19 20 20 21 22 23 22 22 22 22 22 21 20 20 19 20 19 19 18 18
11 11 10 11 11 11 11 11 12 13 13 14 14 14 16 16 16 17 17 18 19 19 19 19 20 21 22 23 24 24 23 23 23 22 21 20 20 20 20 19 19 18 18
10 11 11 11 12 12 12 12 13 13 13 13 14 15 15 16 16 17 17 18 18 19 19 20 21 22 23 23 24 24 24 24 23 22 21 20 20 20 19 19 19 18 18
Wind_Direction
311 309 308 307 307 307 305 305 308 308 307 308 309 309 309 310 309 307 307 306 303 302 299 296 293 290 285 284 282 280 279 278 278 276 277 277 275 274 274 275 276 277 277
311 311 312 311 310 309 309 308 307 306 306 306 307 306 307 309 311 310 309 307 305 301 300 299 296 292 289 287 285 282 280 278 277 277 281 280 277 275 276 276 276 277 278
312 311 311 311 312 311 309 309 309 308 306 307 308 308 308 310 311 310 309 308 307 303 302 301 297 294 292 290 288 285 283 280 279 278 279 279 278 277 276 276 277 278 278
313 313 312 313 314 313 310 309 308 307 306 307 309 310 310 310 311 310 309 307 306 308 307 304 300 296 294 293 291 289 287 285 282 280 280 280 279 280 278 278 278 279 279
316 316 315 314 313 312 310 309 309 308 308 308 308 308 309 309 310 312 310 307 306 308 308 305 299 297 295 295 293 293 290 288 285 281 279 280 281 280 279 279 281 281 281
318 317 316 315 314 314 313 311 310 309 309 308 309 308 307 308 309 309 309 311 311 311 310 306 299 297 297 296 294 294 292 290 286 284 281 280 281 281 280 281 283 282 280
320 318 318 317 317 316 314 312 311 310 309 309 309 308 308 309 311 312 312 313 313 312 311 307 304 300 299 298 297 295 292 291 289 287 283 281 281 282 283 284 284 282 281
321 320 320 320 318 316 315 314 313 312 312 312 311 309 309 310 311 312 314 315 315 314 312 310 309 306 305 303 300 298 294 293 291 290 286 284 284 284 287 286 286 284 281
323 324 323 323 322 319 318 317 316 315 316 316 316 316 316 315 314 313 313 314 314 313 311 311 311 310 309 306 304 301 298 297 296 295 293 290 289 287 287 288 287 284 281
326 327 326 325 325 324 323 320 319 319 320 321 321 319 320 319 319 318 316 314 315 313 312 312 313 312 312 310 307 305 304 302 301 301 301 298 294 292 292 292 290 285 282
326 326 327 326 326 326 326 325 326 326 325 327 327 324 321 321 321 319 319 317 317 317 316 315 315 313 314 315 313 309 306 305 304 303 302 301 298 294 294 294 294 291 287
327 327 328 328 328 329 330 331 332 332 332 334 333 330 328 327 325 324 324 321 321 323 324 324 321 317 316 319 317 315 313 312 309 305 301 301 300 299 298 298 297 295 290
327 328 327 328 329 330 333 335 336 336 336 337 337 335 335 335 334 331 330 328 326 327 327 326 324 319 317 320 318 317 317 316 314 310 306 306 305 303 302 302 300 298 294
325 326 327 328 329 331 335 337 339 340 340 341 343 344 344 344 344 342 340 337 333 330 328 327 325 323 321 321 320 319 320 318 316 314 312 312 311 309 306 306 304 302 298
327 327 329 331 331 332 336 340 343 344 345 347 349 350 351 351 350 348 348 345 341 336 333 332 331 330 330 327 323 323 324 324 322 321 319 317 315 314 313 312 310 307 303
326 328 328 331 331 333 337 342 346 348 350 352 354 354 355 353 352 351 350 350 350 346 339 337 338 338 337 335 331 330 330 329 328 328 327 324 321 318 317 317 316 313 308
324 326 328 330 331 335 340 342 346 350 353 356 357 356 356 355 355 354 353 351 351 350 347 345 344 342 341 339 334 333 333 333 333 332 331 328 325 322 320 320 320 319 315
323 324 326 329 333 337 340 344 348 351 353 355 356 356 355 356 355 355 356 354 353 354 354 352 349 348 348 347 343 339 337 334 334 333 332 329 327 324 323 323 323 324 321
322 323 323 327 331 333 336 342 348 350 349 350 351 352 353 353 354 356 357 358 356 354 353 353 351 351 351 349 348 344 341 339 338 335 334 332 330 328 327 326 326 326 324
319 320 322 325 330 332 333 337 342 345 345 347 348 350 352 352 354 355 356 356 355 353 351 350 348 348 349 348 348 346 343 340 339 336 334 331 329 328 327 327 326 327 325
319 320 322 325 326 327 330 334 338 340 342 345 347 347 349 350 351 353 354 354 354 353 353 351 349 347 346 346 346 345 344 342 339 336 334 332 331 330 330 329 328 327 326
316 318 319 321 323 324 326 328 330 334 339 341 344 345 346 349 351 353 352 352 352 352 353 352 351 350 348 347 346 345 344 342 339 337 336 335 334 333 332 333 331 328 326
313 315 316 316 320 321 324 327 329 331 335 337 340 343 344 348 350 352 353 351 348 348 349 350 350 351 350 349 348 346 344 342 340 339 337 337 336 336 336 335 333 331 329
306 309 311 310 312 317 319 320 322 326 332 336 336 339 341 344 346 348 349 350 350 348 347 348 348 349 348 348 346 344 342 341 340 340 339 338 337 337 338 337 334 332 331
303 304 305 307 308 310 313 315 319 322 325 330 331 334 338 341 342 344 346 347 347 348 347 346 346 346 346 346 346 346 343 342 341 341 339 338 339 339 339 338 336 335 333
299 301 303 305 309 310 311 313 316 318 320 323 326 331 335 338 339 340 342 344 347 348 347 344 344 345 346 346 346 346 344 344 344 343 341 339 338 338 337 336 336 336 336
Height
5765 5762 5759 5757 5755 5753 5751 5748 5746 5743 5741 5738 5736 5733 5731 5728 5725 5722 5720 5717 5714 5712 5709 5707 5705 5704 5702 5701 5700 5699 5699 5698 5697 5698 5697 5697 5697 5697 5696 5696 5695 5694 5693
5760 5757 5754 5752 5750 5748 5745 5743 5740 5738 5736 5733 5731 5728 5726 5723 5720 5717 5714 5711 5709 5706 5704 5701 5699 5697 5696 5694 5693 5692 5691 5690 5690 5690 5690 5689 5689 5689 5688 5687 5687 5686 5685
5755 5752 5750 5748 5745 5742 5740 5737 5735 5733 5730 5728 5726 5723 5720 5718 5715 5712 5709 5706 5703 5700 5698 5695 5693 5691 5689 5687 5686 5685 5684 5683 5682 5682 5682 5681 5680 5680 5680 5679 5678 5677 5676
5750 5748 5745 5743 5740 5738 5735 5732 5730 5727 5725 5723 5720 5718 5715 5713 5710 5706 5703 5700 5697 5694 5692 5689 5686 5684 5682 5681 5679 5678 5676 5676 5675 5674 5674 5673 5672 5671 5671 5671 5670 5669 5668
5746 5743 5741 5738 5736 5733 5730 5728 5725 5722 5720 5718 5715 5713 5710 5707 5704 5701 5698 5695 5691 5689 5686 5683 5680 5678 5676 5674 5672 5671 5669 5668 5667 5666 5665 5665 5664 5663 5663 5662 5662 5661 5660
5742 5739 5736 5733 5731 5728 5725 5723 5720 5717 5715 5712 5710 5707 5704 5701 5699 5695 5692 5689 5686 5683 5680 5677 5674 5671 5670 5667 5665 5664 5662 5661 5660 5659 5658 5657 5657 5655 5655 5654 5653 5653 5652
5738 5735 5732 5729 5726 5723 5720 5718 5715 5712 5710 5707 5704 5701 5699 5696 5693 5690 5686 5682 5679 5676 5673 5670 5667 5665 5663 5661 5659 5657 5656 5654 5653 5651 5651 5650 5649 5648 5647 5646 5645 5644 5644
5733 5730 5727 5724 5721 5718 5715 5712 5710 5707 5704 5701 5699 5696 5693 5690 5687 5684 5680 5677 5674 5671 5667 5664 5662 5659 5656 5654 5653 5651 5649 5648 5646 5645 5644 5643 5641 5640 5640 5639 5638 5637 5636
5729 5726 5723 5720 5717 5714 5710 5707 5705 5702 5699 5696 5693 5691 5688 5685 5682 5678 5675 5672 5668 5665 5662 5659 5656 5654 5651 5648 5647 5645 5643 5642 5640 5638 5637 5636 5635 5634 5633 5632 5631 5630 5629
5726 5723 5719 5716 5713 5709 5706 5703 5700 5697 5694 5691 5688 5686 5683 5680 5677 5673 5670 5666 5663 5660 5657 5654 5651 5649 5646 5644 5641 5639 5638 5636 5634 5632 5631 5630 5628 5627 5626 5625 5623 5623 5622
5723 5719 5716 5712 5709 5706 5702 5699 5696 5693 5690 5687 5684 5681 5678 5675 5672 5668 5664 5661 5658 5655 5652 5649 5647 5644 5642 5640 5637 5635 5633 5631 5629 5627 5626 5624 5623 5621 5620 5618 5616 5615 5614
5720 5716 5713 5709 5706 5702 5699 5696 5693 5690 5687 5684 5681 5677 5674 5670 5667 5663 5660 5656 5653 5651 5648 5645 5642 5640 5638 5635 5633 5631 5628 5626 5624 5622 5621 5619 5617 5616 5614 5612 5610 5608 5607
5717 5714 5710 5707 5703 5700 5697 5694 5691 5688 5684 5681 5678 5674 5671 5667 5663 5660 5656 5653 5650 5647 5644 5642 5639 5637 5634 5632 5630 5627 5625 5623 5620 5618 5616 5614 5612 5610 5608 5605 5604 5602 5600
5714 5711 5708 5704 5701 5698 5695 5692 5688 5685 5682 5679 5675 5672 5668 5665 5661 5657 5653 5650 5647 5644 5641 5639 5636 5633 5631 5629 5626 5624 5621 5619 5616 5614 5611 5609 5607 5604 5602 5600 5598 5596 5594
5711 5708 5704 5701 5699 5696 5693 5690 5686 5683 5680 5677 5674 5670 5666 5663 5659 5655 5651 5648 5644 5641 5639 5637 5634 5631 5628 5626 5623 5621 5618 5615 5613 5610 5607 5604 5602 5599 5597 5594 5592 5590 5588
5708 5705 5702 5699 5696 5694 5691 5688 5685 5682 5679 5676 5673 5669 5665 5662 5658 5654 5650 5646 5643 5640 5637 5635 5632 5629 5626 5623 5620 5617 5615 5612 5609 5605 5603 5600 5598 5595 5593 5590 5587 5585 5582
5705 5702 5699 5697 5694 5692 5689 5687 5684 5682 5679 5676 5673 5669 5665 5661 5657 5653 5649 5646 5643 5639 5636 5633 5630 5627 5624 5620 5617 5615 5612 5608 5605 5603 5600 5597 5594 5592 5589 5586 5583 5580 5577
5702 5700 5698 5695 5693 5690 5688 5686 5683 5681 5678 5675 5672 5669 5665 5661 5657 5653 5649 5645 5642 5639 5636 5632 5629 5626 5622 5618 5615 5612 5609 5606 5603 5600 5597 5594 5591 5588 5585 5582 5579 5576 5573
5700 5698 5696 5694 5691 5689 5687 5685 5683 5680 5678 5675 5672 5668 5665 5661 5657 5653 5649 5645 5641 5638 5635 5631 5628 5625 5621 5617 5613 5610 5606 5603 5600 5597 5594 5591 5588 5584 5581 5578 5575 5572 5569
5698 5696 5694 5692 5690 5688 5686 5684 5682 5680 5677 5674 5671 5667 5664 5660 5657 5653 5648 5645 5641 5637 5634 5630 5627 5623 5619 5616 5612 5608 5604 5601 5597 5594 5591 5587 5584 5581 5577 5574 5571 5568 5565
5696 5694 5692 5690 5688 5686 5685 5683 5681 5679 5676 5673 5670 5666 5663 5659 5656 5652 5648 5644 5641 5637 5633 5629 5626 5622 5618 5614 5610 5606 5602 5598 5594 5591 5587 5584 5580 5577 5574 5570 5567 5564 5561
5694 5692 5690 5689 5687 5685 5684 5682 5680 5677 5675 5672 5669 5666 5662 5659 5655 5651 5648 5644 5640 5636 5632 5628 5624 5621 5617 5612 5608 5604 5600 5596 5592 5588 5584 5580 5577 5573 5570 5567 5563 5560 5557
5692 5690 5689 5687 5685 5684 5682 5680 5678 5676 5673 5671 5668 5665 5661 5658 5655 5651 5647 5643 5639 5635 5631 5627 5623 5619 5615 5611 5606 5602 5597 5593 5589 5584 5580 5576 5573 5570 5566 5563 5560 5557 5554
5689 5688 5687 5685 5684 5682 5680 5678 5676 5674 5672 5669 5666 5663 5660 5657 5653 5650 5646 5642 5639 5635 5631 5626 5622 5618 5614 5609 5604 5599 5594 5590 5585 5581 5577 5573 5570 5566 5563 5560 5556 5553 5550
5686 5685 5684 5683 5681 5680 5678 5676 5674 5672 5670 5667 5665 5662 5659 5655 5652 5648 5645 5641 5637 5633 5629 5625 5621 5617 5612 5607 5602 5597 5592 5587 5582 5578 5574 5570 5566 5563 5559 5556 5553 5550 5547
5684 5683 5682 5680 5679 5677 5675 5674 5672 5670 5668 5665 5663 5660 5657 5654 5651 5647 5644 5640 5636 5632 5628 5624 5620 5615 5610 5605 5600 5595 5590 5584 5579 5575 5571 5567 5564 5560 5556 5553 5550 5547 5544